This is the latest recevied weather packets stored in our database for station/object SQ5NWH-11. If no packets are shown the sender has not sent any weather packets the latest 10 day(s).
| Time | Temp. | Humidity | Pressure | Rain* | Wind** | Luminosity | Snow |
|---|---|---|---|---|---|---|---|
| 1777443631 | 6.67° C | 42% | 1018 hPa | - | - | - | - |
| 1777442730 | 6.11° C | 42% | 1018 hPa | - | - | - | - |
| 1777441829 | 6.11° C | 43% | 1018 hPa | - | - | - | - |
| 1777440928 | 6.11° C | 43% | 1018 hPa | - | - | - | - |
| 1777440027 | 6.11° C | 43% | 1018 hPa | - | - | - | - |
| 1777439126 | 5.56° C | 43% | 1018 hPa | - | - | - | - |
| 1777437324 | 5.56° C | 41% | 1018 hPa | - | - | - | - |
| 1777424709 | 6.67° C | 37% | 1017 hPa | - | - | - | - |
| 1777423808 | 6.67° C | 37% | 1017 hPa | - | - | - | - |
| 1777421105 | 7.22° C | 36% | 1017 hPa | - | - | - | - |
| 1777412995 | 8.33° C | 33% | 1016 hPa | - | - | - | - |
| 1777412094 | 8.89° C | 33% | 1016 hPa | - | - | - | - |
| 1777404885 | 9.44° C | 36% | 1015 hPa | - | - | - | - |
| 1777400380 | 10° C | 36% | 1014 hPa | - | - | - | - |
| 1777399479 | 10.56° C | 35% | 1014 hPa | - | - | - | - |
| 1777398578 | 10.56° C | 35% | 1014 hPa | - | - | - | - |
| 1777397677 | 10.56° C | 33% | 1014 hPa | - | - | - | - |
| 1777396776 | 10.56° C | 33% | 1014 hPa | - | - | - | - |
| 1777395875 | 11.11° C | 32% | 1014 hPa | - | - | - | - |
| 1777394974 | 11.11° C | 31% | 1014 hPa | - | - | - | - |
| 1777394073 | 11.11° C | 31% | 1013 hPa | - | - | - | - |
| 1777392270 | 11.11° C | 31% | 1013 hPa | - | - | - | - |
| 1777389567 | 11.67° C | 30% | 1014 hPa | - | - | - | - |
| 1777385963 | 11.67° C | 30% | 1014 hPa | - | - | - | - |
| 1777384161 | 11.67° C | 30% | 1014 hPa | - | - | - | - |
* Rain since midnight (hover to see other rain measurements)
** Current wind speed in m/s (hover to see current wind gust speed)